Flag for Germany Weather past 2 weeks in Norden, Lower Saxony, Germany

Now
61 °F

Fog.


Feels Like: 61 °F
Forecast: 59 / 62 °F
Wind: 2 mph from Southeast

Location: Norderney

Current Time: Sep 20, 2014 at 5:02:47 AM

Latest Report: Sep 20, 2014 at 4:00 AM


Visibility: 1 mi

Pressure: 29.91 "Hg

Humidity: 93%

Dew point: 59 °F

Location of NordenLocation

Historic Weather in Norden — Graph

°F

Norden temperature yesterday

Maximum temperature yesterday: 69 °F (at 3:00 PM)
Minimum temperature yesterday: 58 °F (at 8:00 AM)
Average temperature yesterday: 64 °F

Past Weeks' High & Low Weather Summary

 TemperatureHumidityPressure
High74 °F (Sep 17, 2:00 PM)98% (Sep 6, 8:00 AM)30.31 "Hg (Sep 6, 8:00 AM)
Low58 °F (Sep 9, 8:00 AM)59% (Sep 17, 2:00 PM)29.87 "Hg (Sep 19, 6:00 AM)
Average63 °F82%30.05 "Hg
* Reported Sep 5 3:00 AM — Sep 20 3:00 AM, Norden, Weather by CustomWeather, © 2014

Note: Actual official high and low records may vary slightly from our data, if they occured in-between our weather recording intervals... More about our weather records

Advertising

Norden weather history for previous 24 hours

 ConditionsComfort  
Time TempWeatherWind HumidityBarometerVisibility
3:00 AM
Sep 20
62 °FFog.3 mph91%29.91 "Hg1 mi
2:00 AM62 °FFog.3 mph91%29.90 "Hg1 mi
1:00 AM63 °FFog.3 mph92%29.91 "Hg1 mi
12:00 AM64 °FFog.3 mph86%29.91 "Hg2 mi
11:00 PM
Sep 19
65 °FFog.5 mph85%29.91 "Hg3 mi
10:00 PM66 °FFog.6 mph85%29.91 "Hg2 mi
9:00 PM65 °FFog.3 mph90%29.90 "Hg4 mi
8:00 PM65 °FFog.3 mph87%29.90 "Hg4 mi
7:00 PM66 °FFog.5 mph84%29.90 "Hg4 mi
6:00 PM67 °FPassing clouds.6 mph81%29.89 "Hg5 mi
5:00 PM67 °FPassing clouds.7 mph80%29.88 "Hg5 mi
4:00 PM68 °FPassing clouds.7 mph80%29.89 "Hg5 mi
3:00 PM69 °FPassing clouds.7 mph76%29.89 "Hg4 mi
2:00 PM68 °FPassing clouds.7 mph78%29.89 "Hg4 mi
1:00 PM66 °FSunny.6 mph82%29.90 "Hg5 mi
12:00 PM66 °FPassing clouds.6 mph80%29.89 "Hg5 mi
11:00 AM66 °FSunny.5 mph78%29.90 "Hg5 mi
10:00 AM65 °FFog.3 mph81%29.90 "Hg4 mi
9:00 AM62 °FFog.2 mph89%29.89 "Hg2 mi
8:00 AM58 °FFog.2 mph92%29.89 "Hg2 mi
7:00 AM59 °FFog.3 mph92%29.88 "Hg2 mi
6:00 AM59 °FClear.3 mph91%29.87 "Hg5 mi
5:00 AM59 °FFog.3 mph91%29.88 "Hg1 mi
Weather by CustomWeather, © 2014

See weather overviewHow to use our weather pages